Weather History for Altus, OK

Change the Weather History Date:

Wednesday, June 26, 2013

  Actual Average (KLTS) Record (KLTS)
Temperature  
Mean Temperature 91 °F -  
Max Temperature 105 °F 90 °F 111 °F (2011)
Min Temperature 77 °F 68 °F 60 °F (2003)
Cooling Degree Days 26    
Growing Degree Days 41 (Base 50)    
Moisture  
Dew Point 61 °F    
Average Humidity 37    
Maximum Humidity 59    
Minimum Humidity 22    
Precipitation  
Precipitation 0.00 in - - ()
Sea Level Pressure  
Sea Level Pressure 29.85 in    
Wind  
Wind Speed 12 mph (SSE)    
Max Wind Speed 20 mph    
Max Gust Speed 28 mph    
Visibility 10 miles    
Events      
Averages and records for this station are not official NWS values.
T = Trace of Precipitation, MM = Missing Value Source: NWS Daily Summary

Daily Weather History Graph

Daily Weather History Graph

Search for Another Location

Airport:

Trip Planner

Search our weather history database for the weather conditions in past years. The results will help you decide how hot, cold, wet, or windy it might be!

Date:

Astronomy

Jun. 26, 2013 Rise Set
Actual Time 6:26 AM CDT 8:54 PM CDT
Civil Twilight 5:56 AM CDT 9:23 PM CDT
Nautical Twilight 5:20 AM CDT 10:00 PM CDT
Astronomical Twilight 4:39 AM CDT 10:40 PM CDT
Moon 11:29 PM CDT (6/26) 10:10 AM CDT (6/26)
Length of Visible Light 15h 27m
Length of Day
14h 28m
Waning Gibbous, 85% of the Moon is Illuminated
Jun 26
Waning Gibbous
Jun 29
Last Quarter
Jul 8
New
Jul 15
First Quarter
Jul 22
Full

Hourly Weather History & Observations

Time (CDT) Temp. Heat Index Dew Point Humidity Pressure Visibility Wind Dir Wind Speed Gust Speed Precip Events Conditions
12:15 AM 87.8 °F 86.9 °F 58.3 °F 37% 29.81 in 10.0 mi SE 9.2 mph - N/A   Clear
12:35 AM 86.2 °F 85.4 °F 58.3 °F 39% 29.81 in 10.0 mi SE 10.4 mph - N/A   Clear
12:55 AM 87.3 °F 85.9 °F 56.7 °F 35% 29.81 in 10.0 mi SSE 11.5 mph - N/A   Clear
1:15 AM 86.7 °F 85.6 °F 57.2 °F 37% 29.81 in 10.0 mi SE 9.2 mph - N/A   Clear
1:35 AM 85.5 °F 84.6 °F 57.6 °F 39% 29.81 in 10.0 mi SSE 10.4 mph - N/A   Clear
1:55 AM 85.1 °F 84.4 °F 57.9 °F 40% 29.80 in 10.0 mi SSE 10.4 mph - N/A   Clear
2:15 AM 85.8 °F 84.8 °F 57.6 °F 38% 29.80 in 10.0 mi South 12.7 mph - N/A   Clear
2:35 AM 86.0 °F 85.0 °F 57.4 °F 38% 29.81 in 10.0 mi South 11.5 mph - N/A   Clear
2:55 AM 86.0 °F 85.0 °F 57.4 °F 38% 29.81 in 10.0 mi South 12.7 mph - N/A   Clear
3:15 AM 85.6 °F 84.8 °F 58.1 °F 39% 29.81 in 10.0 mi South 11.5 mph - N/A   Clear
3:35 AM 85.5 °F 84.8 °F 58.6 °F 40% 29.81 in 10.0 mi South 10.4 mph - N/A   Clear
3:55 AM 84.4 °F 84.2 °F 59.5 °F 43% 29.82 in 10.0 mi SSE 6.9 mph - N/A   Clear
4:15 AM 81.1 °F 81.6 °F 59.9 °F 48% 29.82 in 10.0 mi SSE 8.1 mph - N/A   Clear
4:35 AM 80.2 °F 81.1 °F 60.6 °F 51% 29.82 in 10.0 mi ESE 5.8 mph - N/A   Clear
4:55 AM 79.2 °F - 60.3 °F 52% 29.82 in 10.0 mi SE 6.9 mph - N/A   Clear
5:15 AM 78.1 °F - 60.6 °F 55% 29.83 in 10.0 mi SE 6.9 mph - N/A   Clear
5:35 AM 77.5 °F - 60.8 °F 56% 29.83 in 10.0 mi SE 8.1 mph - N/A   Clear
5:55 AM 77.4 °F - 61.0 °F 57% 29.83 in 10.0 mi SE 8.1 mph - N/A   Clear
6:15 AM 77.2 °F - 61.2 °F 58% 29.84 in 10.0 mi SE 9.2 mph - N/A   Clear
6:35 AM 77.0 °F - 61.7 °F 59% 29.85 in 10.0 mi SSE 8.1 mph - N/A   Clear
6:55 AM 77.9 °F - 62.1 °F 58% 29.85 in 10.0 mi SSE 9.2 mph - N/A   Clear
7:15 AM 79.2 °F - 62.4 °F 56% 29.85 in 10.0 mi South 9.2 mph - N/A   Clear
7:35 AM 80.6 °F 81.8 °F 62.8 °F 54% 29.86 in 10.0 mi SSE 9.2 mph - N/A   Clear
7:55 AM 80.2 °F 81.5 °F 62.6 °F 55% 29.86 in 10.0 mi South 10.4 mph - N/A   Clear
8:15 AM 82.9 °F 84.0 °F 63.1 °F 51% 29.87 in 10.0 mi SE 13.8 mph - N/A   Clear
8:35 AM 84.0 °F 85.2 °F 63.3 °F 50% 29.87 in 10.0 mi South 15.0 mph - N/A   Clear
8:55 AM 86.0 °F 87.1 °F 63.3 °F 47% 29.88 in 10.0 mi SSE 15.0 mph 19.6 mph N/A   Clear
9:15 AM 87.4 °F 88.2 °F 62.8 °F 44% 29.87 in 10.0 mi South 17.3 mph 20.7 mph N/A   Scattered Clouds
9:35 AM 89.1 °F 89.6 °F 62.8 °F 41% 29.88 in 10.0 mi South 16.1 mph - N/A   Scattered Clouds
9:55 AM 90.3 °F 90.8 °F 62.6 °F 39% 29.88 in 10.0 mi South 15.0 mph 21.9 mph N/A   Clear
10:15 AM 90.9 °F 91.6 °F 62.4 °F 39% 29.87 in 10.0 mi SSW 17.3 mph 23.0 mph N/A   Clear
10:35 AM 92.3 °F 92.7 °F 62.1 °F 36% 29.87 in 10.0 mi South 17.3 mph 20.7 mph N/A   Clear
10:55 AM 93.0 °F 93.8 °F 62.1 °F 36% 29.88 in 10.0 mi South 13.8 mph 20.7 mph N/A   Clear
11:15 AM 94.3 °F 94.9 °F 61.5 °F 34% 29.88 in 10.0 mi South 16.1 mph 21.9 mph N/A   Clear
11:35 AM 95.9 °F 96.6 °F 61.3 °F 32% 29.88 in 10.0 mi SSW 13.8 mph 21.9 mph N/A   Clear
11:55 AM 96.3 °F 97.2 °F 61.5 °F 32% 29.88 in 10.0 mi SW 15.0 mph 20.7 mph N/A   Clear
12:15 PM 97.2 °F 98.1 °F 61.7 °F 31% 29.88 in 10.0 mi South 13.8 mph 19.6 mph N/A   Clear
12:35 PM 98.1 °F 99.1 °F 61.9 °F 30% 29.88 in 10.0 mi SSW 11.5 mph 20.7 mph N/A   Clear
12:55 PM 98.1 °F 99.1 °F 61.9 °F 30% 29.88 in 10.0 mi SSW 13.8 mph 19.6 mph N/A   Clear
1:15 PM 99.5 °F 100.9 °F 61.9 °F 29% 29.88 in 10.0 mi South 11.5 mph 18.4 mph N/A   Clear
1:35 PM 100.2 °F 101.5 °F 62.1 °F 28% 29.88 in 10.0 mi South 9.2 mph 19.6 mph N/A   Clear
1:55 PM 101.3 °F 103.3 °F 62.6 °F 28% 29.87 in 10.0 mi SSE 17.3 mph - N/A   Clear
2:15 PM 101.8 °F 104.3 °F 63.5 °F 28% 29.87 in 10.0 mi SSE 15.0 mph 24.2 mph N/A   Clear
2:35 PM 102.4 °F 105.2 °F 63.1 °F 28% 29.87 in 10.0 mi South 16.1 mph 21.9 mph N/A   Clear
2:55 PM 102.7 °F 105.2 °F 62.4 °F 27% 29.86 in 10.0 mi South 16.1 mph 23.0 mph N/A   Clear
3:15 PM 103.3 °F 105.4 °F 62.2 °F 26% 29.86 in 10.0 mi South 16.1 mph 19.6 mph N/A   Clear
3:35 PM 103.6 °F 106.0 °F 62.4 °F 26% 29.85 in 10.0 mi South 16.1 mph - N/A   Clear
3:55 PM 104.2 °F 106.3 °F 61.9 °F 25% 29.84 in 10.0 mi South 15.0 mph 21.9 mph N/A   Clear
4:15 PM 105.4 °F 106.9 °F 61.0 °F 23% 29.84 in 10.0 mi South 15.0 mph 23.0 mph N/A   Clear
4:35 PM 105.1 °F 107.1 °F 61.2 °F 24% 29.84 in 10.0 mi South 17.3 mph 24.2 mph N/A   Clear
4:55 PM 105.8 °F 107.5 °F 60.8 °F 23% 29.84 in 10.0 mi South 18.4 mph 27.6 mph N/A   Clear
5:15 PM 105.4 °F 107.7 °F 61.3 °F 24% 29.84 in 10.0 mi SSE 17.3 mph 25.3 mph N/A   Clear
5:35 PM 105.1 °F 107.1 °F 61.5 °F 24% 29.83 in 10.0 mi South 18.4 mph 27.6 mph N/A   Clear
5:55 PM 104.9 °F 106.8 °F 61.0 °F 24% 29.83 in 10.0 mi SSE 15.0 mph 24.2 mph N/A   Clear
6:15 PM 105.3 °F 106.0 °F 59.2 °F 22% 29.83 in 10.0 mi South 19.6 mph 23.0 mph N/A   Clear
6:35 PM 104.2 °F 105.6 °F 60.3 °F 24% 29.83 in 10.0 mi SSE 19.6 mph 24.2 mph N/A   Clear
6:55 PM 104.0 °F 104.6 °F 59.4 °F 23% 29.83 in 10.0 mi South 16.1 mph 21.9 mph N/A   Clear
7:15 PM 103.8 °F 104.4 °F 59.2 °F 23% 29.83 in 10.0 mi South 16.1 mph - N/A   Clear
7:35 PM 102.9 °F 103.6 °F 59.5 °F 24% 29.83 in 10.0 mi SSE 16.1 mph 23.0 mph N/A   Clear
7:55 PM 101.8 °F 103.0 °F 60.8 °F 26% 29.84 in 10.0 mi SSE 16.1 mph 21.9 mph N/A   Clear
8:15 PM 100.6 °F 101.6 °F 60.8 °F 27% 29.84 in 10.0 mi SSE 17.3 mph - N/A   Clear
8:35 PM 99.5 °F 100.4 °F 60.8 °F 28% 29.84 in 10.0 mi SSE 12.7 mph - N/A   Clear
8:55 PM 97.7 °F 99.0 °F 62.6 °F 31% 29.85 in 10.0 mi SE 13.8 mph - N/A   Clear
9:15 PM 95.9 °F 97.0 °F 62.6 °F 33% 29.85 in 10.0 mi SE 13.8 mph - N/A   Clear
9:35 PM 95.0 °F 96.0 °F 62.4 °F 34% 29.86 in 10.0 mi SE 13.8 mph - N/A   Clear
9:55 PM 93.2 °F 94.1 °F 62.6 °F 36% 29.87 in 10.0 mi SE 11.5 mph - N/A   Clear
10:15 PM 92.3 °F 93.1 °F 62.8 °F 37% 29.88 in 10.0 mi SE 10.4 mph - N/A   Clear
10:35 PM 91.6 °F 92.3 °F 62.4 °F 38% 29.89 in 10.0 mi SE 11.5 mph - N/A   Clear
10:55 PM 91.0 °F 91.5 °F 61.9 °F 38% 29.91 in 10.0 mi SE 10.4 mph - N/A   Clear
11:15 PM 89.8 °F 90.0 °F 61.9 °F 39% 29.91 in 10.0 mi ESE 9.2 mph - N/A   Clear
11:35 PM 88.7 °F 89.1 °F 62.2 °F 41% 29.92 in 10.0 mi ESE 9.2 mph - N/A   Clear
11:55 PM 86.7 °F 87.8 °F 63.9 °F 46% 29.92 in 10.0 mi ESE 10.4 mph - N/A   Clear